#timestamp,LO_Frequency,Hit 
1502863215.4,286046995.2,P
1502863235.2,286046994.9,N
1502863255.1,286046999.1,N
1502863256.0,286046999.1,N
1502863275.8,286047002.0,N
1502863295.6,286046999.9,N
1502863315.5,286047004.3,N
1502863335.3,286047002.7,N
1502863355.1,286046999.0,N
1502863375.9,286046998.8,N
1502863395.7,286046998.9,N
1502863415.5,286046998.7,N
1502863435.4,286046999.9,N
1502863455.2,286046999.7,N
1502863475.0,286046998.1,N
1502863475.9,286046998.1,N
1502863495.8,286046999.4,N
1502863515.6,286047001.2,N
1502863535.4,286047001.2,N
1502863555.2,286046998.8,N
1502863575.1,286046996.6,N
1502863576.0,286046996.6,N
1502863595.8,286046999.5,N
1502863615.6,286046997.2,N
1502863635.5,286046998.2,N
1502863655.3,286047001.1,N
1502863675.1,286046996.9,N
1502863695.9,286046998.0,N
1502863715.7,286046996.8,N
1502863735.5,286046995.3,N
1502863755.4,286046996.5,N
1502863775.2,286046999.1,N
1502863795.0,286046998.4,N
1502863795.9,286046998.4,N
1502863815.8,286047001.0,N
1502863835.6,286046999.7,N
1502863855.4,286047000.4,N
1502863875.2,286046999.5,N
1502863895.1,286046996.9,N
1502863896.0,286046996.9,N
1502863915.8,286046999.2,N
1502863935.6,286046998.8,N
1502863955.5,286046999.4,N
1502863975.3,286046997.8,N
1502863995.1,286046999.4,N
1502864015.9,286046999.8,N
1502864035.7,286047002.0,N
1502864055.5,286047000.4,N
1502864075.4,286047002.6,N
1502864095.2,286047000.2,N
1502864115.0,286047001.2,N
1502864115.9,286047001.2,N
1502864135.8,286046999.7,N
1502864155.6,286046999.9,N
1502864175.4,286047001.1,N
1502864195.3,286046998.5,N
1502864215.1,286046999.4,N
1502864216.0,286046999.4,N
1502864235.8,286046999.0,N
1502864255.6,286046997.3,N
1502864275.5,286046999.1,N
1502864295.3,286046999.1,N
1502864315.1,286046998.9,N
1502864335.9,286046998.8,N
1502864355.7,286046999.0,N
1502864375.5,286046997.4,N
1502864395.4,286046997.7,N
1502864415.2,286046993.3,P
1502864435.0,286046995.9,N
1502864435.9,286046995.9,N
1502864455.8,286046998.4,N
1502864475.6,286046999.5,N
1502864495.4,286046997.2,N
1502864515.3,286046999.0,N
1502864535.1,286047000.6,N
1502864536.0,286047000.6,N
1502864555.8,286046998.3,N
1502864575.7,286046996.7,N
1502864595.5,286046998.3,N
1502864615.3,286047002.3,N
1502864635.1,286047003.8,N
1502864655.9,286047002.6,N
1502864675.7,286046998.2,N
1502864695.5,286046999.5,N
1502864715.4,286046999.2,N
1502864735.2,286046997.4,N
1502864755.0,286047001.0,N
1502864755.9,286047001.0,N
1502864775.8,286046998.5,N
1502864795.6,286047000.4,N
1502864815.4,286047002.3,N
1502864835.3,286047002.8,N
1502864855.1,286046999.8,N
1502864856.0,286046999.8,N
1502864875.8,286047002.8,N
1502864895.7,286046998.5,N
1502864915.5,286046998.5,N
1502864935.3,286047001.2,N
1502864955.2,286046999.1,N
1502864975.9,286046999.3,N
1502864995.7,286046999.0,N
1502865015.5,286047001.0,N
1502865035.4,286047000.6,N
1502865055.2,286046998.8,N
1502865075.0,286046999.6,N
1502865075.9,286046999.6,N
1502865095.8,286046999.2,N
1502865115.6,286046996.9,N
1502865135.4,286046996.9,N
1502865155.3,286046998.6,N
1502865175.1,286047000.2,N
1502865176.0,286047000.2,N
1502865195.8,286046998.7,N
1502865215.7,286047000.9,N
1502865235.5,286047000.4,N
1502865255.3,286046999.8,N
1502865275.2,286047002.7,N
1502865295.9,286047000.6,N
1502865315.7,286047000.4,N
1502865335.6,286047001.0,N
1502865355.4,286047000.8,N
1502865375.2,286047000.4,N
1502865395.0,286047000.8,N
1502865395.9,286047000.8,N
1502865415.8,286046999.3,N
1502865435.6,286046998.5,N
1502865455.4,286046998.7,N
1502865475.3,286046999.3,N
1502865495.1,286046998.8,N
1502865515.8,286046998.7,N
1502865535.7,286047001.1,N
1502865555.5,286046999.2,N
1502865575.3,286046998.8,N
1502865595.2,286046999.0,N
1502865615.9,286047001.0,N
1502865635.7,286047000.0,N
1502865655.6,286047004.4,P
1502865675.4,286047004.4,N
1502865695.2,286047002.1,N
1502865715.1,286047000.0,N
1502865716.0,286047000.0,N
1502865735.8,286047000.9,N
1502865755.6,286047002.8,N
1502865775.5,286047004.2,N
1502865795.3,286047003.6,N
1502865815.1,286047003.6,N
1502865835.8,286047004.3,N
1502865855.7,286047001.3,N
1502865875.5,286047001.8,N
1502865895.3,286047001.4,N
1502865915.2,286047003.5,N
1502865935.9,286047003.0,N
1502865955.7,286047005.2,P
1502865975.6,286047002.8,N
1502865995.4,286046999.8,N
1502866015.2,286046999.2,N
1502866035.1,286047000.2,N
1502866036.0,286047000.2,N
1502866055.8,286047001.8,N
1502866075.6,286047001.7,N
1502866095.5,286046999.8,N
1502866115.3,286047000.5,N
1502866135.1,286047000.6,N
1502866155.9,286047000.1,N
1502866175.7,286046999.9,N
1502866195.5,286046999.0,N
1502866215.3,286046998.4,N
1502866235.2,286047000.5,N
1502866255.0,286047000.3,N
1502866255.9,286047000.3,N
1502866275.7,286047001.0,N
1502866295.6,286046997.0,N
1502866315.4,286046996.8,N
1502866335.2,286046996.8,N
1502866355.1,286046995.8,N
1502866356.0,286046995.8,N
1502866375.8,286046994.9,N
1502866395.6,286046996.1,N
1502866415.5,286046999.0,N
1502866435.3,286047000.0,N
1502866455.1,286047002.4,N
1502866475.9,286046999.7,N
1502866495.7,286047001.4,N
1502866515.5,286047002.2,N
1502866535.3,286047000.1,N
1502866555.2,286046998.6,N
1502866575.0,286046999.5,N
1502866575.9,286046999.5,N
1502866595.7,286046999.0,N
1502866615.6,286047001.2,N
1502866635.4,286046998.4,N
1502866655.2,286047001.2,N
1502866675.1,286046998.6,N
1502866676.0,286046998.6,N
1502866695.8,286046999.7,N
1502866715.6,286047000.3,N
1502866735.5,286047000.6,N
1502866755.3,286047000.8,N
1502866775.1,286047001.1,N
1502866795.9,286046998.6,N
